Home > Weather > Nagano > Past weeks

Flag for Japan Past Weather in Nagano, Japan — Yesterday and Last 2 Weeks

Now
70 °F

Mild.


Feels Like: 72 °F
Forecast: 64 / 76 °F
Wind: 3 mph from Northwest

Location: Nagano

Current Time: Jun 28, 2016 at 12:08:49 AM

Latest Report: Jun 27, 2016 at 11:00 PM


Visibility: N/A

Pressure: 29.91 "Hg

Humidity: 77%

Dew Point: 63 °F

Location of NaganoLocation

Past Weather in Nagano — Graph

°F

Nagano Temperature Yesterday

Maximum temperature yesterday: 84 °F (at 3:00 PM)
Minimum temperature yesterday: 59 °F (at 5:00 AM)
Average temperature yesterday: 71 °F

High & Low Weather Summary for the Past Weeks

 TemperatureHumidityPressure
High85 °F (Jun 15, 2:00 PM)100% (Jun 13, 2:00 AM)30.00 "Hg (Jun 13, 2:00 AM)
Low59 °F (Jun 27, 5:00 AM)40% (Jun 18, 11:00 AM)29.41 "Hg (Jun 25, 1:00 AM)
Average71 °F76%29.71 "Hg
* Reported Jun 12 10:00 PM — Jun 27 10:00 PM, Nagano, Weather by CustomWeather, © 2016

Note: Actual official high and low records may vary slightly from our data, if they occured in-between our weather recording intervals... More about our weather records

Advertising

Nagano Weather History for the Previous 24 Hours

Scroll right to see more
 ConditionsComfort  
Time TempWeatherWind HumidityBarometerVisibility
10:00 PM
Mon, Jun 27
71 °FMild.3 mph74%29.92 "HgN/A
9:00 PM72 °FLight rain. Overcast.2 mph71%29.91 "Hg12 mi
8:00 PM72 °FMild.2 mph68%29.90 "HgN/A
7:00 PM74 °FMild.5 mph64%29.87 "HgN/A
6:00 PM76 °FMild.7 mph61%29.86 "HgN/A
5:00 PM77 °FWarm.7 mph61%29.85 "HgN/A
4:00 PM79 °FWarm.8 mph56%29.83 "HgN/A
3:00 PM84 °FScattered clouds.8 mph51%29.81 "Hg12 mi
2:00 PM83 °FPleasantly warm.5 mph40%29.82 "HgN/A
1:00 PM81 °FWarm.5 mph44%29.84 "HgN/A
12:00 PM80 °FWarm.2 mph49%29.87 "HgN/A
11:00 AM76 °FMild.3 mph50%29.90 "HgN/A
10:00 AM74 °FMild.2 mph58%29.92 "HgN/A
9:00 AM70 °FPassing clouds.6 mph65%29.95 "Hg9 mi
8:00 AM67 °FMild.2 mph73%29.98 "HgN/A
6:00 AM61 °FCool.1 mph92%30.00 "HgN/A
5:00 AM59 °FCool.1 mph96%29.98 "HgN/A
4:00 AM61 °FCool.1 mph92%29.95 "HgN/A
3:00 AM60 °FOvercast.3 mph94%29.93 "Hg9 mi
2:00 AM61 °FCool.2 mph91%29.92 "HgN/A
1:00 AM62 °FCool.1 mph89%29.91 "HgN/A
12:00 AM62 °FCool.3 mph89%29.91 "HgN/A
Weather by CustomWeather, © 2016

See weather overviewHow to use our weather pages